[[{"header":{"parameterUnit":"m.s-1","parameterCategory":1,"la1":30.2991,"la2":30.254,"lo1":-89.0895,"lo2":-89.0444,"dy":0.0017,"dx":0.0017,"nx":28,"ny":28,"refTime":"2025-03-02T09:00:00:Z","depth":0,"parameterNumber":2,"parameterNumberName":"U-component_of_WINDS"},"data":[0,0,0,0,0,0,0,0,0,0,0,0,0,0,0,0,0,0,0,0,0,0,0,0,0,0,0,0,0,0,0,0,0,0,0,0,0,0,0,0,0,0,0,0,0,0,0,0,0,0,0,0,0,0,0,0,0,0,-1.2826,-1.2827,0,-1.2889,-1.289,-1.2891,-1.2869,-1.2867,-1.2866,-1.2865,-1.2931,-1.2934,-1.2937,0,0,0,0,0,0,0,0,0,0,0,0,0,-1.2689,-1.2692,-1.2826,-1.2827,-1.2828,-1.2889,-1.289,-1.2891,-1.2869,-1.2867,-1.2865,-1.2864,-1.293,-1.2934,-1.2937,0,0,0,0,0,0,0,0,0,0,0,0,0,-1.275,-1.2692,-1.2826,-1.2824,-1.2825,-1.2889,-1.289,-1.2891,-1.2869,-1.2867,-1.2865,-1.2863,-1.2929,-1.2933,-1.2938,-1.3009,0,0,-1.2952,-1.2954,0,0,0,0,0,0,0,0,-1.2747,-1.2755,-1.2824,-1.2825,-1.2825,-1.2869,-1.2866,-1.2931,-1.287,-1.2852,-1.2864,-1.2862,-1.2912,-1.2918,-1.2935,-1.3012,-1.3015,-1.2953,-1.2955,-1.2957,-1.2959,0,0,0,0,0,0,0,-1.2742,-1.2752,-1.2851,-1.2825,-1.2826,-1.2821,-1.2827,-1.2878,-1.2893,-1.2854,-1.2852,-1.286,-1.2912,-1.293,-1.2936,-1.3016,-1.2952,-1.2956,-1.2959,-1.2961,-1.3154,-1.3156,0,0,0,0,0,0,-1.2738,-1.2749,-1.2849,-1.2853,-1.278,-1.2825,-1.2832,-1.2857,-1.2893,-1.2896,-1.2862,-1.2859,-1.2923,-1.2931,-1.2938,-1.3024,-1.2957,-1.2962,-1.2964,-1.3152,-1.3154,-1.3157,0,0,0,0,0,0,-1.2735,-1.2747,-1.2847,-1.2801,-1.2813,-1.283,-1.2858,-1.2859,-1.2877,-1.2899,-1.2902,-1.2877,-1.2922,-1.2932,-1.2991,-1.3026,-1.2964,-1.2968,-1.3149,-1.3152,-1.3156,-1.3196,0,0,0,0,0,0,-1.2731,-1.2746,-1.2773,-1.2801,-1.2816,-1.2898,-1.286,-1.2862,-1.2885,-1.2882,-1.2914,-1.2917,-1.2921,-1.2984,-1.2996,-1.3031,-1.2971,-1.3146,-1.315,-1.3155,-1.3191,-1.32,-1.3207,0,0,0,0,0,-1.2726,-1.2782,-1.2774,-1.2786,-1.2849,-1.29,-1.2909,-1.2911,-1.2888,-1.2915,-1.2929,-1.2916,-1.302,-1.2991,-1.3003,-1.3041,-1.3144,-1.3149,-1.3154,-1.3188,-1.3198,-1.3207,0,0,0,0,0,0,-1.2758,-1.2785,-1.2777,-1.2844,-1.287,-1.2897,-1.2931,-1.2922,-1.2956,-1.2952,-1.2954,-1.2961,-1.3023,-1.3037,-1.3004,-1.3111,-1.3078,-1.3086,-1.3099,-1.311,-1.3118,-1.3114,-1.2975,0,0,0,0,0,-1.2772,-1.2811,-1.2833,-1.289,-1.2903,-1.2915,-1.2937,-1.2937,-1.2964,-1.2975,-1.2993,-1.3021,-1.3059,-1.3085,-1.3122,-1.3192,-1.32,-1.3224,-1.3232,-1.3239,-1.3247,-1.3285,-1.3297,-1.3174,-1.3174,-1.3174,0,0,-1.2803,-1.2823,-1.2847,-1.2897,-1.2917,-1.2957,-1.2924,-1.2969,-1.2999,-1.2982,-1.304,-1.3053,-1.3084,-1.315,-1.3179,-1.3164,-1.3281,-1.3246,-1.3251,-1.3255,-1.3292,-1.3304,-1.3314,-1.3178,-1.3177,-1.3177,0,0,-1.288,-1.2899,-1.2948,-1.2969,-1.2999,-1.3006,-1.3018,-1.3046,-1.3054,-1.3112,-1.31,-1.3136,-1.3202,-1.3225,-1.3245,-1.333,-1.332,-1.3341,-1.3385,-1.3423,-1.3432,-1.3441,-1.3472,-1.3483,-1.3348,-1.3349,-1.3349,0,-1.2915,-1.2975,-1.2975,-1.302,-1.3043,-1.3028,-1.3078,-1.3098,-1.3139,-1.3155,-1.3137,-1.322,-1.3239,-1.331,-1.3331,-1.3347,-1.3361,-1.3339,-1.3431,-1.3439,-1.3447,-1.3477,-1.3489,-1.3351,-1.3351,-1.3351,-1.335,0,-1.3017,-1.3059,-1.3095,-1.3135,-1.3161,-1.3209,-1.3216,-1.3242,-1.3239,-1.3249,-1.3307,-1.333,-1.3371,-1.3387,-1.3385,-1.3458,-1.3447,-1.343,-1.3398,-1.3462,-1.349,-1.3501,-1.3355,-1.3354,-1.3353,-1.3352,0,0,-1.3119,-1.3156,-1.3169,-1.3187,-1.3219,-1.3252,-1.3298,-1.3338,-1.3361,-1.3389,-1.343,-1.3485,-1.3469,-1.3492,-1.3492,-1.3525,-1.3591,-1.3503,-1.3504,-1.352,-1.3674,-1.3688,-1.3702,-1.3584,-1.3586,-1.3588,-1.3672,0,-1.32,-1.3282,-1.3282,-1.3358,-1.3397,-1.3383,-1.3423,-1.3448,-1.3457,-1.3492,-1.3503,-1.3543,-1.3518,-1.3531,-1.3563,-1.3577,-1.3623,-1.357,-1.3622,-1.3624,-1.3617,-1.3716,-1.3732,-1.381,-1.3683,-1.3685,-1.3686,0,-1.3306,-1.3337,-1.3416,-1.3442,-1.3459,-1.3495,-1.3532,-1.3565,-1.3592,-1.3596,-1.3621,-1.3616,-1.3664,-1.3628,-1.3695,-1.366,-1.3681,-1.369,-1.3693,-1.37,-1.3661,-1.3727,-1.3835,-1.3848,-1.3703,-1.3702,-1.3701,0,-1.3373,-1.3435,-1.3491,-1.3506,-1.3537,-1.3563,-1.3578,-1.3602,-1.3626,-1.3657,-1.3673,-1.371,-1.373,-1.3759,-1.3764,-1.3737,-1.3831,-1.3796,-1.3837,-1.3837,-1.386,-1.3859,-1.3974,-1.387,-1.387,-1.387,-1.387,0,-1.3465,-1.3515,-1.3521,-1.3556,-1.3611,-1.3611,-1.3665,-1.3678,-1.37,-1.3737,-1.3726,-1.3761,-1.3764,-1.38,-1.3804,-1.3859,-1.3868,-1.3874,-1.3875,-1.3876,-1.3875,-1.3891,-1.3887,-1.3873,-1.3872,-1.3872,-1.3871,0,-1.3551,-1.3557,-1.3617,-1.3641,-1.3648,-1.3688,-1.3709,-1.3742,-1.3749,-1.3796,-1.3807,-1.382,-1.3862,-1.3868,-1.3918,-1.392,-1.3987,-1.3981,-1.3978,-1.3978,-1.4019,-1.4016,-1.4151,-1.4169,-1.4052,-1.4053,-1.4054,0,-1.361,-1.3648,-1.3675,-1.3699,-1.3714,-1.3753,-1.3776,-1.3777,-1.3802,-1.3835,-1.3865,-1.3905,-1.3938,-1.4005,-1.4019,-1.4057,-1.4053,-1.4097,-1.4059,-1.4059,-1.4055,-1.4054,-1.4058,-1.4106,-1.4107,-1.4108,-1.4109,0,-1.3715,-1.3716,-1.375,-1.3785,-1.3814,-1.3842,-1.3868,-1.3888,-1.3892,-1.3921,-1.3963,-1.3988,-1.4038,-1.4079,-1.4116,-1.4131,-1.4121,-1.412,-1.4132,-1.4135,-1.4132,-1.4136,-1.4,-1.4118,-1.4117,-1.4116,-1.4116,-1.4115,-1.379,-1.3823,-1.3848,-1.3886,-1.3906,-1.393,-1.3963,-1.3974,-1.4009,-1.4049,-1.4047,-1.4094,-1.4119,-1.4168,-1.4185,-1.4222,-1.4208,-1.4225,-1.4229,-1.4234,-1.4239,-1.4124,-1.4229,-1.4228,-1.4228,-1.4228,-1.4228,0,-1.3896,-1.391,-1.3945,-1.3982,-1.4013,-1.3999,-1.4027,-1.4054,-1.4095,-1.4119,-1.4151,-1.4199,-1.4238,-1.4254,-1.4293,-1.4319,-1.4316,-1.4329,-1.4328,-1.4332,-1.4249,-1.4235,-1.4332,-1.4332,-1.4332,-1.4332,-1.4332,-1.4331,-1.3954,-1.4009,-1.4013,-1.4078,-1.4092,-1.4137,-1.4155,-1.4178,-1.4197,-1.4251,-1.4283,-1.4293,-1.4314,-1.4354,-1.4389,-1.4393,-1.4408,-1.4424,-1.4426,-1.4348,-1.4338,-1.4328,-1.4316,-1.4427,-1.4428,-1.4507,-1.4508,-1.4508]},{"header":{"parameterUnit":"m.s-1","parameterCategory":1,"la1":30.2991,"la2":30.254,"lo1":-89.0895,"lo2":-89.0444,"dy":0.0017,"dx":0.0017,"nx":28,"ny":28,"refTime":"2025-03-02T09:00:00:Z","depth":0,"parameterNumber":3,"parameterNumberName":"V-component_of_WINDS"},"data":[0,0,0,0,0,0,0,0,0,0,0,0,0,0,0,0,0,0,0,0,0,0,0,0,0,0,0,0,0,0,0,0,0,0,0,0,0,0,0,0,0,0,0,0,0,0,0,0,0,0,0,0,0,0,0,0,0,0,-5.8863,-5.8865,0,-5.8987,-5.8989,-5.899,-5.893,-5.8927,-5.8924,-5.8921,-5.9044,-5.905,-5.9056,0,0,0,0,0,0,0,0,0,0,0,0,0,-5.8572,-5.8577,-5.8863,-5.8865,-5.8867,-5.8987,-5.8989,-5.899,-5.8931,-5.8927,-5.8923,-5.8919,-5.9042,-5.9049,-5.9056,0,0,0,0,0,0,0,0,0,0,0,0,0,-5.8697,-5.8579,-5.8863,-5.8851,-5.8852,-5.8987,-5.8989,-5.8991,-5.8931,-5.8927,-5.8922,-5.8918,-5.9039,-5.9048,-5.9057,-5.921,0,0,-5.9086,-5.909,0,0,0,0,0,0,0,0,-5.869,-5.8708,-5.8852,-5.8852,-5.8853,-5.8938,-5.8931,-5.9064,-5.8933,-5.8901,-5.8921,-5.8915,-5.9012,-5.9023,-5.9057,-5.9216,-5.9221,-5.9087,-5.9092,-5.9096,-5.9099,0,0,0,0,0,0,0,-5.8681,-5.8702,-5.8912,-5.8854,-5.8855,-5.8839,-5.8851,-5.8956,-5.8982,-5.8903,-5.8899,-5.8915,-5.9012,-5.9048,-5.9059,-5.9223,-5.9086,-5.9095,-5.9101,-5.9104,-5.9513,-5.9518,0,0,0,0,0,0,-5.8674,-5.8695,-5.8908,-5.8916,-5.8758,-5.8848,-5.8862,-5.8916,-5.898,-5.8986,-5.8919,-5.8912,-5.9035,-5.9049,-5.9063,-5.9247,-5.9096,-5.9105,-5.911,-5.9508,-5.9514,-5.952,0,0,0,0,0,0,-5.8668,-5.8693,-5.8903,-5.8805,-5.883,-5.8858,-5.8919,-5.8921,-5.8957,-5.8992,-5.8996,-5.8952,-5.9031,-5.905,-5.9174,-5.925,-5.9109,-5.9118,-5.9501,-5.951,-5.9517,-5.9615,0,0,0,0,0,0,-5.866,-5.8692,-5.8751,-5.8807,-5.8836,-5.9014,-5.8923,-5.8926,-5.8974,-5.8966,-5.9024,-5.9029,-5.9029,-5.9161,-5.9184,-5.9261,-5.9125,-5.9495,-5.9505,-5.9514,-5.9605,-5.9625,-5.9642,0,0,0,0,0,-5.8649,-5.8773,-5.8754,-5.878,-5.8911,-5.9018,-5.9035,-5.9033,-5.898,-5.904,-5.9062,-5.9027,-5.9238,-5.9174,-5.9199,-5.928,-5.949,-5.9502,-5.9514,-5.9597,-5.9621,-5.9642,0,0,0,0,0,0,-5.8724,-5.878,-5.876,-5.8905,-5.8958,-5.9008,-5.9083,-5.9059,-5.9127,-5.9116,-5.911,-5.9124,-5.9253,-5.9278,-5.9206,-5.9431,-5.9356,-5.9373,-5.941,-5.9434,-5.9452,-5.9443,-5.9133,0,0,0,0,0,-5.8757,-5.8841,-5.8885,-5.9008,-5.9036,-5.9055,-5.9102,-5.9096,-5.915,-5.9171,-5.9203,-5.9255,-5.9333,-5.9384,-5.9458,-5.9608,-5.9619,-5.9676,-5.9694,-5.971,-5.9725,-5.9806,-5.9832,-5.9559,-5.9558,-5.9558,0,0,-5.8827,-5.8868,-5.8921,-5.9025,-5.9065,-5.9151,-5.9074,-5.9168,-5.9232,-5.9185,-5.9305,-5.933,-5.9387,-5.9525,-5.9587,-5.9551,-5.9803,-5.9725,-5.9737,-5.9744,-5.9821,-5.9847,-5.987,-5.9567,-5.9565,-5.9564,0,0,-5.8998,-5.9038,-5.9145,-5.9187,-5.9249,-5.9261,-5.9287,-5.9341,-5.9357,-5.9477,-5.9444,-5.9518,-5.9652,-5.9695,-5.9734,-5.9922,-5.9892,-5.9946,-6.0044,-6.0123,-6.0144,-6.0163,-6.0231,-6.0255,-5.9961,-5.9961,-5.9961,0,-5.9077,-5.9206,-5.9203,-5.9301,-5.9347,-5.931,-5.9418,-5.9459,-5.9541,-5.9573,-5.9531,-5.97,-5.9736,-5.9883,-5.9929,-5.9962,-5.999,-5.994,-6.0142,-6.0161,-6.0178,-6.0243,-6.0268,-5.9967,-5.9966,-5.9966,-5.9965,0,-5.93,-5.939,-5.947,-5.9552,-5.9607,-5.9709,-5.9721,-5.9777,-5.9766,-5.9782,-5.9904,-5.9946,-6.0028,-6.0062,-6.0052,-6.0209,-6.0184,-6.0142,-6.0066,-6.0211,-6.0271,-6.0295,-5.9976,-5.9974,-5.9972,-5.997,0,0,-5.9522,-5.9602,-5.9631,-5.9668,-5.9734,-5.9803,-5.9903,-5.9984,-6.0032,-6.009,-6.0174,-6.0288,-6.025,-6.0295,-6.0289,-6.0358,-6.0505,-6.0308,-6.0309,-6.0343,-6.0679,-6.0711,-6.074,-6.0485,-6.049,-6.0493,-6.0675,0,-5.9699,-5.9876,-5.9876,-6.0039,-6.0123,-6.0088,-6.0175,-6.0224,-6.0242,-6.0314,-6.0332,-6.0414,-6.0357,-6.0384,-6.0451,-6.0473,-6.0572,-6.0459,-6.0562,-6.0566,-6.055,-6.0771,-6.0805,-6.0974,-6.0698,-6.0702,-6.0705,0,-5.9929,-5.9996,-6.0168,-6.0222,-6.0257,-6.0335,-6.041,-6.0479,-6.0534,-6.0541,-6.0592,-6.0575,-6.0676,-6.0596,-6.0735,-6.0658,-6.07,-6.0717,-6.0723,-6.0733,-6.0645,-6.0788,-6.1028,-6.1054,-6.0742,-6.0739,-6.0736,0,-6.0075,-6.0207,-6.0328,-6.036,-6.0426,-6.0482,-6.0512,-6.0561,-6.061,-6.0675,-6.0706,-6.0781,-6.0822,-6.088,-6.0883,-6.0825,-6.1023,-6.0944,-6.1032,-6.1032,-6.1076,-6.1073,-6.1327,-6.1101,-6.1101,-6.11,-6.11,0,-6.0272,-6.0379,-6.0394,-6.0469,-6.0587,-6.0585,-6.0702,-6.0726,-6.077,-6.0848,-6.0821,-6.0894,-6.0894,-6.0968,-6.0971,-6.1085,-6.1104,-6.1112,-6.1112,-6.1115,-6.1114,-6.1143,-6.1132,-6.1107,-6.1106,-6.1104,-6.1103,0,-6.0456,-6.047,-6.0599,-6.0651,-6.0666,-6.0752,-6.0795,-6.0865,-6.088,-6.0978,-6.1001,-6.1023,-6.1109,-6.1118,-6.1217,-6.1219,-6.1357,-6.1344,-6.134,-6.1338,-6.1425,-6.1417,-6.1707,-6.1745,-6.1494,-6.1497,-6.1499,0,-6.0581,-6.0663,-6.0724,-6.0775,-6.0808,-6.089,-6.094,-6.094,-6.0993,-6.1062,-6.1123,-6.1206,-6.1273,-6.1411,-6.1436,-6.1511,-6.15,-6.1596,-6.1511,-6.1512,-6.1502,-6.1498,-6.1506,-6.1613,-6.1616,-6.1618,-6.162,0,-6.0803,-6.0807,-6.0881,-6.0958,-6.1019,-6.1079,-6.1135,-6.1178,-6.1185,-6.1246,-6.1334,-6.1386,-6.1488,-6.1571,-6.1645,-6.1673,-6.1649,-6.1646,-6.1671,-6.1676,-6.167,-6.1675,-6.1386,-6.164,-6.1638,-6.1636,-6.1635,-6.1635,-6.0962,-6.1033,-6.1088,-6.1171,-6.1214,-6.1267,-6.1336,-6.136,-6.1434,-6.1518,-6.1513,-6.161,-6.1661,-6.1759,-6.1793,-6.1868,-6.1836,-6.1871,-6.188,-6.1889,-6.1898,-6.1658,-6.1881,-6.1881,-6.188,-6.188,-6.1879,0,-6.1183,-6.1217,-6.1293,-6.1374,-6.1439,-6.1411,-6.1472,-6.1528,-6.1615,-6.1665,-6.1732,-6.1833,-6.1913,-6.1944,-6.2022,-6.2076,-6.2066,-6.2097,-6.2093,-6.21,-6.1922,-6.1894,-6.2103,-6.2103,-6.2103,-6.2103,-6.2103,-6.2103,-6.1306,-6.1425,-6.1435,-6.1574,-6.1606,-6.1703,-6.174,-6.1789,-6.183,-6.1944,-6.2011,-6.2031,-6.2074,-6.2155,-6.2227,-6.2234,-6.2264,-6.2299,-6.2301,-6.2135,-6.2112,-6.2091,-6.2064,-6.2306,-6.2306,-6.2472,-6.2474,-6.2475]}]]